Theta_e
290 284 284 284 285 287 288 288 288 287 285 283 281 282 282 280 282 283 283 284 286 285 284 286 286 286 287 289 290 291 290 288 288 287 288 288 288 289 289 290 292 293 294 295 295 296 296 297 299 300 300 300 300 300 300 300 299 300 301 300 300 301 304 312 315 315 316 315 314 315 314 313 314 313 313 315 316 316 315 314 314 312 312 311 311 310
289 283 285 288 288 288 287 287 286 284 284 284 282 280 280 280 280 284 285 286 286 285 280 281 283 285 287 289 289 291 289 288 289 288 288 288 288 288 289 290 291 292 292 292 292 293 294 295 295 296 296 299 299 298 298 299 300 300 299 299 300 300 299 307 314 315 316 316 316 315 314 313 312 311 310 311 313 315 314 313 313 312 311 311 310 309
282 283 288 289 289 286 284 286 286 286 285 282 283 279 280 281 281 283 284 285 286 284 282 281 282 285 287 288 289 289 289 289 289 288 289 288 288 288 289 290 290 290 290 290 291 292 293 294 295 295 294 295 296 295 296 296 297 297 298 299 300 301 300 301 309 312 314 316 316 315 313 313 309 309 311 312 313 313 313 313 312 311 311 311 310 309
281 284 289 287 286 287 285 283 284 284 282 282 281 279 280 280 281 280 281 282 285 285 281 281 282 284 287 288 287 288 286 287 287 289 289 289 288 288 289 291 291 290 290 290 289 291 292 293 293 294 295 295 295 296 295 295 296 297 299 298 298 299 300 300 303 310 312 314 316 316 312 311 311 309 307 308 309 311 312 311 311 311 311 310 309 309
285 285 287 287 287 288 285 283 283 281 282 281 282 281 281 280 280 281 280 281 283 281 284 282 280 282 282 282 283 284 285 288 288 288 288 288 289 289 290 290 290 290 290 289 288 290 291 292 292 293 294 293 294 294 295 296 297 299 298 298 298 299 299 300 301 305 309 311 312 312 308 308 306 306 306 306 307 309 309 310 310 310 310 310 309 308
285 287 287 287 285 285 284 282 282 283 280 279 280 283 284 281 281 281 280 281 278 276 281 281 278 275 279 280 281 285 284 286 286 287 288 289 289 290 289 289 289 289 288 289 290 291 291 291 291 291 291 292 293 294 295 296 297 297 298 298 298 299 300 300 300 302 307 310 311 308 305 303 306 304 305 305 305 306 307 308 310 310 310 309 308 307
285 287 289 286 286 283 284 283 282 284 281 281 282 283 283 281 281 280 280 279 272 273 279 282 275 276 281 284 285 284 283 284 285 285 288 287 288 288 289 288 288 289 289 290 290 290 290 290 289 290 291 292 292 294 295 295 296 296 297 297 298 299 300 302 302 303 306 309 311 308 307 307 306 306 306 308 307 307 308 309 308 308 309 308 307 306
285 285 285 284 284 283 280 282 283 285 281 279 282 282 282 282 281 279 278 278 276 278 281 280 278 273 277 284 283 282 281 284 284 285 287 288 287 288 288 288 287 289 289 290 290 290 289 289 290 291 292 292 294 295 295 295 296 296 297 297 298 299 300 302 304 304 306 308 309 308 308 308 307 307 307 307 306 307 308 307 307 307 307 307 306 305
286 284 285 282 281 280 283 283 284 287 283 280 282 281 282 281 280 279 277 276 276 276 278 276 278 275 274 280 283 282 283 284 283 285 287 288 288 287 288 287 288 289 290 290 289 289 289 290 290 291 292 294 295 296 296 297 297 297 297 298 298 299 300 301 303 305 305 307 308 308 308 307 308 308 306 306 306 306 306 306 305 306 305 305 305 305
284 286 286 286 284 283 280 280 284 286 283 285 283 284 282 281 280 279 276 277 274 273 277 274 277 273 276 279 280 279 282 282 284 285 287 288 288 287 287 286 287 288 288 288 289 289 289 289 290 292 293 294 295 296 297 298 298 298 298 298 298 298 300 301 302 304 305 306 306 304 307 307 307 306 305 305 304 305 305 304 303 304 304 304 303 303
286 286 285 283 284 281 280 283 283 285 283 286 283 282 280 279 279 277 275 273 272 271 276 276 277 275 274 280 281 281 282 283 283 282 282 284 286 287 287 287 288 289 288 288 289 289 289 290 291 292 293 295 296 295 297 298 298 298 298 298 298 299 300 301 302 303 304 305 306 306 307 307 305 304 304 303 303 303 304 302 302 302 303 303 302 302
284 282 282 282 286 282 284 284 284 283 284 282 279 277 278 276 274 273 268 269 271 270 272 276 277 277 272 278 279 282 283 282 284 283 285 286 287 288 287 286 288 288 288 289 288 289 290 291 291 291 293 295 296 297 298 298 297 297 299 299 299 300 301 301 302 303 304 306 307 307 308 307 306 304 303 303 303 303 302 302 301 302 301 301 301 301
283 281 281 284 287 286 283 283 284 282 283 281 279 279 275 272 270 271 270 271 270 273 274 272 275 276 276 282 284 284 284 283 282 285 286 287 287 287 286 286 288 288 288 288 288 288 289 289 289 292 295 296 297 299 300 299 298 297 297 299 301 301 302 302 303 304 305 305 305 305 305 307 306 305 304 303 303 303 302 302 301 300 299 299 299 299
281 280 282 284 285 287 286 283 280 279 282 280 279 276 273 271 270 268 267 266 269 273 273 273 277 275 280 282 286 287 289 289 287 285 285 288 288 287 286 286 287 288 288 288 289 288 289 289 290 294 296 297 299 300 300 300 300 299 297 297 298 300 301 301 302 303 304 304 304 305 306 307 305 304 305 304 303 303 303 302 301 300 300 299 299 298
276 277 281 284 282 287 287 288 286 284 281 282 280 282 279 273 268 268 267 272 273 271 273 272 273 275 275 282 283 286 288 285 284 286 285 286 288 287 285 285 286 286 286 286 289 290 290 290 292 295 296 297 299 300 301 300 300 300 299 298 298 299 301 301 302 303 304 304 305 305 306 305 305 305 304 304 303 303 302 302 301 301 300 300 299 299
281 280 284 285 284 285 285 286 285 283 281 281 280 280 276 279 276 276 269 268 268 269 272 269 276 279 283 284 286 287 286 286 285 285 286 286 284 283 284 285 287 287 288 288 290 290 290 290 293 295 297 299 300 301 301 300 300 300 301 300 300 301 302 303 303 304 304 304 305 305 304 304 304 303 303 302 302 303 302 301 301 300 300 300 299 298
282 279 283 284 285 284 284 285 286 285 280 281 280 277 279 280 277 270 273 272 270 268 271 269 276 281 285 287 285 281 283 285 285 285 285 285 283 283 285 285 286 287 287 289 290 290 290 290 294 297 298 299 300 300 300 300 299 298 299 300 301 301 302 302 302 303 304 304 304 304 303 303 303 302 301 301 301 301 301 301 301 300 299 299 298 297
282 281 282 282 283 284 285 285 284 282 283 280 276 280 282 281 276 276 273 267 267 268 271 272 276 280 280 282 283 282 281 283 284 285 285 284 282 283 285 284 286 287 288 290 291 290 291 291 295 298 299 299 299 299 299 299 298 296 297 301 300 300 300 301 302 302 303 302 302 302 302 302 302 302 301 301 300 300 300 300 299 299 297 297 297 296
286 281 281 281 283 284 284 285 284 284 284 281 279 283 282 276 276 273 271 270 267 267 267 268 272 275 280 283 282 284 282 283 284 284 283 283 282 283 284 283 285 286 287 289 290 290 291 291 294 296 298 299 299 299 299 299 298 298 298 300 301 300 301 301 302 302 302 302 302 302 302 302 301 301 301 301 300 300 299 298 298 297 297 297 296 296
286 281 280 281 282 283 282 283 278 281 285 283 283 281 279 278 273 273 276 270 271 269 266 270 270 277 283 283 283 286 284 285 284 283 283 285 284 284 285 284 284 286 288 290 290 290 291 292 294 296 297 298 298 298 297 298 298 298 298 299 299 300 300 300 301 301 301 301 301 301 301 301 301 301 300 300 299 299 298 298 297 297 296 296 296 296
283 284 276 279 281 281 279 281 280 283 281 280 279 277 277 276 278 276 274 274 273 268 266 266 271 275 284 286 284 286 285 285 284 284 285 285 284 284 285 284 285 287 289 290 291 291 291 293 295 297 297 298 298 297 296 297 298 298 298 298 299 299 299 299 299 300 301 301 300 300 300 300 300 299 299 299 299 298 298 297 297 297 296 296 295 295
284 281 280 277 278 277 279 282 282 282 283 281 281 279 282 277 275 273 275 274 268 271 272 266 275 277 286 287 288 288 287 285 284 285 285 285 285 284 284 283 285 287 288 290 291 291 291 292 295 297 298 298 298 298 297 297 297 298 298 298 299 299 299 299 299 300 300 300 300 300 299 299 299 299 299 298 298 297 297 297 297 296 296 295 295 295
285 283 279 273 276 279 281 282 279 280 280 281 281 278 280 277 276 274 273 274 269 271 269 269 269 278 285 286 287 286 285 284 284 284 285 285 285 284 283 283 285 287 289 290 291 291 291 292 294 297 297 298 297 297 297 295 295 297 297 298 298 298 298 299 299 300 300 300 299 299 299 299 298 298 298 298 297 297 297 296 296 296 295 295 295 295
289 282 279 277 278 278 279 277 277 276 280 281 280 279 279 280 282 282 278 274 275 268 271 271 270 277 285 285 283 284 283 282 282 283 285 284 284 283 282 283 284 286 288 290 291 291 292 292 294 297 297 297 296 295 295 296 296 296 297 298 298 298 298 298 299 299 299 299 299 298 298 297 298 298 298 297 297 297 296 296 296 296 296 295 295 294
283 283 283 277 276 275 274 276 277 277 278 276 278 282 282 282 281 274 273 270 273 273 275 274 274 278 286 285 285 282 280 282 282 282 283 285 283 282 282 283 284 287 288 289 290 291 292 292 294 296 297 297 296 295 295 295 296 296 297 297 298 298 298 298 298 298 299 298 298 298 297 297 297 297 297 297 297 296 296 296 296 295 295 295 294 294
286 283 282 277 275 273 271 271 270 272 278 279 278 279 281 281 279 276 277 272 274 272 276 274 277 283 285 284 285 284 281 281 282 283 282 283 284 283 283 283 284 287 289 289 290 290 292 293 294 296 296 296 296 295 295 296 295 296 297 297 298 298 298 298 298 298 298 297 297 297 297 297 297 297 297 297 296 296 296 296 295 295 295 295 294 294
283 283 284 283 281 279 280 278 280 282 277 276 277 280 280 281 281 281 272 271 276 270 275 279 281 284 285 287 285 285 282 282 283 283 284 285 284 282 283 284 285 287 289 289 290 291 291 292 293 295 295 296 296 295 295 294 294 295 296 297 297 298 298 298 297 297 297 297 297 296 296 296 296 297 297 296 296 296 296 296 295 295 295 295 294 294
282 280 282 283 283 284 284 281 279 282 281 280 279 278 281 279 280 279 277 277 278 273 276 278 281 281 284 286 288 287 284 283 283 284 285 285 286 285 284 284 286 286 289 289 289 290 291 292 293 294 295 295 295 295 294 294 294 295 295 296 297 297 297 297 297 297 297 297 296 296 296 297 297 297 297 297 296 296 296 295 295 295 295 294 294 294
280 280 283 281 282 283 283 282 281 280 280 279 280 280 279 279 278 277 278 281 279 279 278 278 282 281 284 286 289 289 286 285 286 286 286 287 286 284 282 283 284 285 288 289 290 290 291 291 292 293 294 295 295 295 294 294 294 294 295 297 297 297 297 297 297 297 296 296 296 296 296 296 297 297 296 296 296 296 295 295 295 295 294 294 294 294
283 279 281 281 282 283 283 281 280 279 278 279 279 278 280 279 279 279 280 282 281 281 283 279 280 282 285 287 289 289 285 287 286 286 285 285 284 284 284 284 284 285 287 289 290 290 291 292 292 293 294 294 295 295 294 294 294 295 295 296 297 297 297 297 297 296 296 296 296 296 296 296 296 296 296 295 295 295 295 295 294 294 294 294 294 293
284 279 285 278 278 280 282 282 279 279 277 278 280 278 278 279 280 280 280 281 281 280 280 280 281 281 285 288 288 289 284 283 283 284 285 286 285 284 284 284 284 285 286 289 290 290 291 291 292 292 293 294 294 295 295 295 295 295 295 296 296 297 297 297 296 296 296 296 296 296 296 295 295 295 295 295 295 295 294 294 294 293 293 292 292 292
284 280 278 277 277 279 282 281 279 274 275 275 277 278 277 276 275 277 277 280 279 279 280 281 280 281 287 289 286 289 287 285 285 285 285 285 285 285 285 285 285 285 286 288 290 291 291 291 291 292 293 294 295 295 295 295 296 295 295 296 296 296 297 297 296 296 296 296 296 296 295 295 295 295 295 295 294 294 294 293 292 292 292 291 291 291
282 282 280 278 277 277 281 277 275 272 273 275 275 277 279 279 280 280 281 282 282 283 281 279 281 286 288 289 287 286 285 283 283 285 284 284 285 286 286 286 287 286 286 288 290 291 291 291 292 292 293 294 294 294 295 296 296 295 295 295 295 296 296 296 295 296 295 295 295 295 295 295 294 294 294 294 294 293 293 292 292 291 291 291 291 290
283 282 281 282 276 277 279 274 273 274 272 274 284 283 282 280 279 278 279 280 282 284 283 286 287 288 288 288 287 288 288 288 288 286 286 286 285 285 285 286 287 287 286 288 290 291 292 292 292 293 294 294 295 295 295 295 295 295 295 295 294 295 296 296 296 296 294 294 295 294 294 294 294 293 293 294 293 293 292 292 292 291 292 291 290 290
281 282 281 281 277 277 273 272 273 271 273 284 278 278 283 283 282 281 282 283 283 284 285 285 287 287 288 289 290 290 289 289 285 284 284 285 286 286 286 286 287 287 286 286 289 291 292 292 292 292 293 293 293 294 294 295 295 294 293 295 295 295 296 296 296 295 295 294 294 294 294 294 293 293 293 293 293 292 292 292 291 291 291 291 291 290
280 280 280 278 279 273 270 274 270 272 280 280 278 277 278 280 280 281 280 283 284 284 284 284 286 288 288 289 290 290 289 286 284 284 285 286 287 287 286 287 287 287 287 287 288 291 292 292 292 292 293 294 293 293 295 295 295 294 294 295 295 294 295 296 295 295 294 294 294 294 294 294 293 293 293 293 292 292 292 291 291 291 291 290 291 291
283 282 281 277 281 274 276 275 275 281 279 281 281 278 278 278 279 278 276 280 283 285 285 285 286 287 288 289 290 290 285 284 285 288 289 287 286 288 289 289 289 288 288 288 289 291 293 294 294 293 293 293 294 293 294 295 295 294 294 294 295 294 295 295 295 294 294 294 294 294 294 294 293 293 293 292 292 291 291 291 291 291 291 290 290 290
284 280 281 278 277 280 276 274 273 272 270 277 283 283 283 283 284 284 281 281 284 286 287 286 285 287 287 288 288 285 283 283 283 286 290 287 288 288 289 291 290 289 289 288 288 290 292 293 293 293 293 292 293 294 294 294 295 295 295 294 295 294 294 294 294 294 294 294 294 294 294 294 294 293 292 292 292 292 292 292 291 291 290 290 290 289
285 284 282 279 277 279 275 273 273 271 275 282 280 283 283 283 282 280 276 277 282 284 286 286 286 287 287 287 286 283 282 280 282 287 288 283 286 287 288 289 288 288 288 288 287 288 291 293 293 292 291 292 292 293 294 294 295 295 294 294 295 295 294 294 294 294 294 294 295 294 294 294 294 293 293 292 292 292 292 291 291 291 290 291 290 290
281 281 280 276 275 277 276 274 272 276 277 279 279 280 283 280 283 281 272 275 282 287 289 287 286 287 287 287 284 283 282 281 283 289 285 285 285 286 286 287 285 285 285 286 287 289 291 291 290 290 290 291 293 293 294 294 294 294 294 294 295 294 294 295 295 295 295 295 295 295 294 294 293 293 293 293 293 293 292 292 291 291 290 290 290 289
278 279 279 274 276 277 277 275 278 278 283 285 278 279 279 284 283 275 272 278 279 283 285 286 287 288 288 284 284 283 285 289 290 284 282 282 284 283 283 284 285 285 285 285 286 288 290 291 291 291 291 292 293 293 293 294 294 292 292 293 294 294 295 296 296 295 295 295 295 295 294 294 294 293 294 294 293 293 292 292 291 290 290 290 290 289
277 279 278 279 276 275 276 275 275 279 284 283 279 279 282 282 274 275 281 281 282 281 282 286 287 288 285 285 285 287 289 288 288 282 284 281 282 281 282 282 282 282 282 285 287 289 290 290 291 291 290 291 291 292 293 294 293 292 292 292 293 294 295 296 296 296 296 295 295 295 294 294 294 294 294 294 293 292 291 292 292 291 291 290 289 289
278 276 274 275 278 278 277 274 274 271 282 289 282 279 282 280 280 283 285 282 283 283 283 284 286 285 286 285 286 287 287 285 285 286 285 282 281 281 281 281 282 282 283 284 286 289 290 290 290 290 290 291 291 292 293 293 292 292 292 292 293 294 294 295 296 295 295 295 295 294 294 294 293 293 294 293 292 292 291 291 291 290 291 290 289 289
284 277 277 277 281 274 274 272 273 282 282 287 287 283 283 285 284 282 284 284 284 284 282 283 284 285 285 286 285 285 285 284 283 281 281 281 280 280 280 280 281 282 282 285 287 289 289 290 290 290 290 290 291 292 293 293 292 291 291 292 293 293 293 294 295 295 295 293 294 294 293 293 292 293 293 292 292 291 291 290 290 290 290 289 289 288
284 281 283 278 283 279 277 280 285 286 284 286 288 290 289 289 289 287 284 284 286 289 283 283 284 283 284 284 284 283 283 283 285 283 282 284 282 280 280 281 282 283 283 285 287 288 289 290 290 290 290 290 290 291 292 293 292 290 290 292 292 292 292 293 293 294 293 293 294 293 293 292 293 293 293 292 291 290 290 289 289 289 289 289 289 289
285 285 286 284 282 285 287 287 287 287 287 285 284 284 285 286 287 288 288 288 286 287 285 287 284 283 282 282 283 282 283 284 282 282 280 281 281 280 280 280 281 281 282 285 286 288 289 290 290 290 289 289 290 291 291 292 292 290 291 292 292 292 292 292 291 291 292 292 292 292 291 290 290 291 291 290 291 291 290 290 289 289 289 289 289 289
283 285 283 281 284 282 278 286 286 286 287 286 283 286 285 284 284 285 286 288 289 290 287 284 284 284 282 282 284 285 285 283 282 282 281 281 281 281 281 281 282 282 284 285 287 288 288 288 289 289 289 289 290 291 291 291 292 292 292 292 292 292 292 291 290 290 290 291 291 291 290 290 290 290 289 289 290 291 290 290 290 290 289 289 289 289
279 285 281 282 282 280 281 285 286 288 287 288 289 287 287 288 288 286 286 288 289 289 286 284 283 283 281 283 283 284 285 281 281 282 281 281 282 281 281 281 281 281 282 285 286 288 289 289 289 289 289 289 290 291 291 292 292 292 292 292 292 292 292 290 290 290 290 290 291 291 290 290 289 289 290 289 290 290 290 290 290 290 289 289 289 289
280 283 276 281 281 283 285 286 287 287 286 287 287 286 288 290 290 290 288 285 284 284 286 285 282 284 283 285 283 283 283 283 282 282 281 281 280 280 281 281 281 282 282 284 286 288 289 289 289 289 289 290 291 291 291 291 292 291 291 292 292 292 291 290 290 290 290 290 291 291 290 291 290 290 290 290 290 291 291 290 290 291 291 292 292 291
280 277 282 282 278 279 280 283 286 281 281 286 288 289 288 288 288 288 289 288 287 285 284 284 285 281 282 282 283 283 284 285 282 281 281 282 282 282 281 281 281 281 281 282 285 287 288 289 289 289 289 291 291 291 291 291 291 291 292 292 292 292 291 290 290 290 290 290 290 290 290 290 290 290 290 290 290 290 290 289 289 291 291 291 289 289
277 278 279 277 278 278 285 287 288 287 287 288 289 290 288 287 287 287 287 288 288 288 285 284 284 282 281 282 281 283 283 285 284 281 281 281 282 282 282 281 281 281 281 281 283 285 287 288 288 289 289 291 291 291 291 291 292 292 292 292 292 292 291 291 290 290 291 290 290 290 290 290 290 290 291 291 290 290 289 289 289 288 289 290 289 289
Wind_Speed
4 4 7 11 11 11 12 14 14 7 3 1 2 2 7 5 11 2 2 2 3 1 9 11 14 17 20 19 19 21 6 9 12 12 12 10 9 10 10 9 10 10 12 3 3 2 4 5 5 5 5 4 3 3 3 3 4 4 5 4 8 7 5 5 6 6 6 7 6 5 7 8 7 7 6 7 9 11 12 15 14 13 11 12 13 13
3 6 13 17 9 12 11 9 5 1 2 4 4 4 8 4 10 4 0 1 2 2 4 1 9 19 20 19 19 19 9 16 14 13 13 12 10 9 9 10 10 8 0 3 4 3 4 4 4 4 4 5 5 3 3 4 4 4 4 5 6 4 4 6 8 8 8 7 8 8 8 6 6 7 7 8 7 13 16 16 17 16 16 15 13 12
4 11 19 8 7 2 2 5 7 9 5 1 5 3 3 9 6 10 1 1 0 1 8 4 9 20 21 17 20 16 12 13 8 7 10 8 8 8 8 8 7 3 4 4 4 1 2 3 3 3 4 4 4 4 3 3 2 3 4 4 5 6 5 6 6 8 8 7 7 7 6 8 3 4 6 7 9 5 10 17 15 14 14 15 14 14
4 10 21 4 5 6 1 4 6 3 1 6 2 2 10 3 1 8 2 2 1 3 4 4 11 18 18 14 14 13 6 6 5 6 8 6 8 8 9 9 8 6 6 8 6 5 2 1 0 0 0 1 0 1 2 3 4 4 5 4 4 5 5 6 6 6 8 9 9 8 6 7 8 6 3 5 3 9 8 14 15 15 15 13 13 14
16 6 0 6 8 10 6 4 6 6 8 4 6 6 6 4 4 7 5 3 2 2 1 5 8 12 6 7 6 2 2 2 4 3 4 5 7 4 1 3 5 8 8 8 4 2 2 3 3 4 4 2 3 4 4 5 5 5 7 7 7 7 6 5 6 7 5 5 5 6 4 5 4 2 5 5 6 8 9 10 15 15 16 17 15 13
12 7 5 9 5 6 5 4 9 9 7 3 8 12 9 3 4 0 3 6 8 5 1 5 9 6 4 5 9 11 7 8 3 3 5 6 5 3 4 3 1 4 6 8 6 5 4 3 3 3 3 4 5 5 6 7 7 7 8 8 8 6 6 6 6 7 5 6 8 7 7 7 7 8 8 11 12 11 12 11 14 15 15 16 15 14
9 1 8 7 7 6 6 7 6 8 7 1 7 8 6 5 3 3 0 3 3 4 1 2 1 13 5 10 8 6 4 9 8 4 6 5 3 4 5 6 6 7 5 2 1 3 3 4 3 3 3 5 5 6 6 5 6 7 8 8 8 8 8 7 6 7 7 8 8 11 11 11 9 11 8 7 7 10 9 8 9 14 15 15 16 14
3 1 4 3 5 7 5 9 6 11 7 6 1 5 7 6 4 3 3 4 4 2 5 1 4 4 11 13 4 2 4 8 8 8 6 7 5 5 5 6 6 5 5 5 5 5 4 3 4 5 4 3 5 5 4 5 6 7 9 8 8 8 8 8 8 8 9 9 9 10 11 10 10 11 11 8 8 7 10 11 9 10 11 12 13 14
6 4 6 5 4 5 11 5 6 10 8 4 3 5 5 4 4 4 2 2 1 3 10 2 2 1 7 11 4 2 7 8 7 8 8 8 6 5 6 7 6 6 6 6 6 5 6 5 3 3 3 4 4 5 6 6 6 6 7 9 9 9 8 8 9 8 8 9 10 10 10 10 10 10 9 8 7 8 9 12 9 11 13 11 10 11
2 4 11 11 9 11 4 1 7 12 6 1 5 5 6 6 4 4 3 3 1 2 10 3 4 3 9 8 6 1 2 7 9 8 9 9 8 7 7 6 6 5 5 5 6 5 4 4 3 3 3 4 5 5 5 5 5 6 7 9 9 10 9 8 9 9 9 10 10 9 10 12 11 8 8 9 10 10 10 11 9 9 12 12 11 9
1 2 3 5 8 3 4 3 3 1 3 8 6 7 5 6 3 2 4 2 2 1 9 2 4 1 7 6 8 4 6 7 5 3 4 4 5 6 6 8 8 6 5 5 5 5 4 2 1 1 4 6 5 4 3 5 5 6 7 8 9 10 9 9 10 10 10 9 9 11 12 13 11 11 12 11 11 10 11 12 11 9 10 12 13 11
0 2 1 2 3 3 3 4 4 2 4 7 2 3 2 1 3 2 3 3 1 7 3 0 2 1 5 9 6 8 3 3 6 5 7 7 8 9 8 7 7 6 6 6 5 3 2 0 1 2 4 4 4 3 5 6 7 7 7 6 8 9 10 9 10 9 9 9 10 11 13 13 12 12 11 13 15 12 13 14 13 10 8 10 10 10
4 6 2 2 4 10 3 8 1 3 0 4 6 5 4 5 5 3 2 2 5 7 0 0 2 3 13 17 9 8 9 7 7 8 10 11 10 8 8 8 6 5 5 5 4 4 2 2 3 3 4 3 3 4 5 7 7 7 6 6 7 8 7 8 8 9 10 10 10 9 9 11 12 13 14 12 14 13 11 11 11 11 11 11 11 11
7 1 3 4 1 5 8 10 3 1 5 6 6 6 5 2 3 7 4 2 5 3 1 2 0 5 5 9 15 21 21 13 9 10 7 11 12 12 11 8 6 6 6 6 5 4 4 4 3 2 3 3 3 4 6 6 6 6 5 6 7 8 7 7 8 9 10 11 10 10 11 12 11 13 14 12 12 13 11 11 12 13 12 13 14 14
5 4 8 12 6 6 11 10 10 6 11 11 3 8 8 7 5 5 5 6 7 5 1 3 1 8 2 5 2 10 8 4 4 7 8 8 9 10 7 6 5 5 5 5 5 5 6 4 2 2 3 1 2 4 6 5 5 5 5 6 8 8 7 8 9 8 10 10 10 10 10 11 12 12 11 11 11 12 12 11 12 11 11 11 11 13
11 7 2 2 1 3 11 1 5 6 3 3 3 5 3 10 5 6 3 2 1 1 1 2 7 4 8 3 8 7 7 9 5 6 5 7 3 3 5 6 7 7 6 5 5 6 4 3 1 1 2 0 1 5 4 4 3 3 2 2 4 4 4 6 8 7 7 8 8 9 10 10 10 10 9 8 11 11 11 11 12 12 11 9 9 10
0 6 1 4 2 4 4 1 1 3 8 4 6 7 7 2 4 4 1 1 2 3 10 3 7 9 7 9 8 3 2 8 3 5 4 5 3 4 6 7 6 7 6 6 7 6 4 3 1 1 2 0 1 4 3 2 2 2 1 1 2 3 2 3 5 6 7 6 7 9 10 9 9 10 10 10 11 13 11 11 10 10 10 9 9 11
5 4 1 2 3 1 1 1 1 3 2 7 4 8 1 2 5 3 4 1 1 5 7 4 8 9 3 10 2 2 2 4 3 5 5 4 3 6 9 7 8 8 8 7 6 5 5 4 4 3 3 2 2 5 3 3 0 1 1 2 2 3 4 3 5 6 6 7 7 7 9 11 10 9 9 9 11 10 11 9 8 8 9 10 9 11
4 7 2 2 0 2 0 2 1 0 0 3 2 2 5 4 3 2 4 4 1 5 6 4 4 6 8 10 2 6 6 7 8 6 4 7 7 10 8 7 5 5 4 6 6 5 5 5 5 4 4 4 3 3 4 2 0 1 2 3 3 3 2 3 4 4 4 6 6 6 7 9 9 9 9 9 10 10 11 11 9 9 9 9 9 10
1 5 2 1 3 1 1 3 9 5 1 0 0 1 1 1 1 6 7 3 4 6 2 7 1 7 8 8 10 10 9 9 8 7 11 13 12 11 10 7 7 7 8 8 7 6 6 6 5 5 5 4 4 4 3 1 0 2 2 4 3 3 3 3 3 6 6 6 7 7 7 6 8 9 10 10 11 10 11 11 12 11 11 12 10 10
5 1 6 0 2 1 3 5 10 14 13 5 1 2 0 0 2 4 0 4 4 5 5 1 9 5 10 7 8 10 10 11 11 13 13 11 11 11 10 9 8 9 8 8 7 7 7 6 6 5 4 4 3 3 2 1 1 2 2 3 2 3 4 4 3 3 5 6 8 8 9 8 8 9 9 10 10 11 10 10 11 12 12 11 10 9
4 3 8 3 1 6 7 3 3 2 6 7 10 10 12 11 6 4 9 2 1 2 6 4 18 3 6 4 9 12 10 7 9 11 12 11 12 12 10 8 8 8 8 8 8 7 7 6 6 5 4 5 4 4 4 2 2 4 3 3 3 3 3 4 3 4 5 5 7 10 9 9 8 9 9 10 9 10 10 10 10 10 11 13 11 10
6 2 3 5 7 9 2 0 0 1 2 2 2 4 4 1 3 3 6 6 0 6 3 2 5 12 5 5 6 6 5 7 9 8 9 9 12 11 10 8 7 8 9 9 8 8 7 7 7 6 7 6 6 5 4 3 3 4 5 3 3 3 2 4 4 4 5 6 6 9 9 9 8 9 10 10 9 10 10 10 10 10 12 11 10 9
5 3 4 3 0 2 1 0 1 1 1 1 3 2 2 9 9 8 3 5 7 2 2 3 6 5 3 1 2 4 1 2 3 8 11 9 9 9 7 6 8 7 7 7 7 7 7 7 6 7 7 7 6 6 6 4 3 3 5 4 3 3 4 3 4 5 6 6 7 7 9 9 9 10 10 10 9 10 10 10 10 10 10 10 9 10
5 4 6 3 3 0 2 1 1 0 1 3 4 9 13 4 2 2 3 1 3 10 9 8 20 5 2 2 1 0 1 3 5 7 7 9 8 7 7 6 6 7 6 8 9 8 8 8 8 9 8 8 7 7 7 6 6 5 5 4 4 4 4 4 3 5 6 7 8 8 8 9 9 10 10 10 9 10 10 10 10 9 10 10 10 9
5 5 9 9 13 13 9 10 9 4 9 6 3 3 8 16 11 4 9 5 10 5 13 11 14 7 1 3 3 3 3 4 5 5 5 5 6 8 7 7 7 7 9 9 9 9 11 11 9 8 9 7 7 8 7 6 6 7 6 5 4 3 4 5 3 4 6 7 8 8 9 9 9 10 10 10 10 10 10 10 10 10 9 10 11 9
3 2 8 10 13 14 10 2 4 5 4 5 8 15 16 16 16 11 4 4 17 2 13 16 10 17 10 12 7 7 4 7 6 6 9 9 9 6 5 8 9 11 11 12 12 11 8 9 11 11 10 9 8 7 6 6 6 7 7 6 6 5 4 4 5 5 6 6 8 7 8 8 9 9 9 9 9 9 9 10 10 10 10 9 10 11
0 4 8 12 13 13 9 4 2 7 9 11 10 11 15 13 14 17 14 19 7 4 23 4 6 15 21 18 19 10 9 7 7 8 9 8 8 10 10 7 7 7 7 7 8 10 13 12 11 11 11 10 9 8 6 6 6 8 9 8 6 6 5 4 5 6 6 7 6 7 8 7 8 8 9 8 8 9 9 9 10 9 9 9 10 10
3 5 5 7 12 12 11 9 5 3 6 6 9 14 14 16 14 20 23 18 9 16 19 10 19 21 24 18 22 16 8 10 13 12 13 14 8 4 4 7 9 11 10 11 13 12 12 12 12 12 12 11 10 10 8 7 7 6 8 8 7 7 7 5 5 6 6 7 7 7 7 6 6 7 7 8 8 9 9 9 9 9 9 9 10 9
1 5 5 6 13 13 14 11 6 9 7 7 10 10 11 13 20 24 24 21 21 20 15 6 11 23 14 18 16 12 4 11 8 7 6 6 7 8 8 9 11 12 13 14 14 14 13 13 12 13 12 11 12 11 9 8 9 9 10 10 9 8 7 7 6 6 6 7 7 7 6 7 6 7 8 8 8 9 8 9 9 9 9 9 8 8
5 6 6 2 4 12 17 12 7 11 8 14 14 8 10 14 18 23 20 18 15 19 11 11 19 21 17 17 17 6 3 3 5 7 11 10 8 9 10 11 12 13 14 14 14 14 14 13 12 12 13 13 13 13 11 9 9 9 10 10 10 9 8 8 7 6 6 6 6 7 8 7 7 7 8 8 8 8 8 9 9 9 8 7 7 8
6 5 3 2 7 13 14 13 13 6 8 12 13 10 14 14 13 10 11 11 11 17 11 18 22 22 19 5 5 13 7 9 12 12 10 9 9 9 11 13 13 13 14 15 15 14 14 14 14 15 15 15 14 14 12 10 9 10 10 11 11 9 9 8 7 7 7 6 7 7 9 8 8 8 8 8 8 8 8 8 9 9 9 8 8 8
8 5 8 7 12 15 15 6 6 2 4 13 16 22 21 14 13 6 13 14 20 17 15 20 24 15 12 10 12 13 9 6 10 11 9 7 10 12 14 15 15 14 14 15 15 16 16 17 17 17 15 14 14 14 13 11 10 11 11 11 10 11 10 8 8 8 7 7 7 7 8 8 9 8 8 8 8 8 8 8 8 9 9 10 8 7
7 11 11 7 12 13 13 4 1 3 17 19 15 7 15 20 17 17 17 16 16 14 18 14 18 13 9 12 16 22 19 18 15 9 11 12 12 12 13 14 14 14 14 14 16 17 17 14 13 14 16 15 15 14 12 11 12 10 9 10 10 12 11 10 9 9 8 7 8 8 8 8 9 8 8 8 8 8 8 9 9 8 7 7 8 9
12 13 12 7 7 14 3 6 5 16 19 17 2 4 14 20 20 24 26 21 23 23 23 21 25 19 15 17 21 24 19 14 3 6 7 10 10 11 14 15 15 14 14 15 15 15 15 16 15 14 14 14 14 12 11 10 9 8 9 10 10 11 12 10 10 9 9 8 8 8 8 9 9 9 8 9 9 10 10 10 9 9 9 9 10 10
10 12 8 6 8 3 2 7 13 18 4 3 3 2 3 1 7 12 18 20 20 22 24 27 28 24 18 22 26 19 15 9 7 10 11 11 13 12 11 13 15 15 15 15 17 18 17 17 18 18 18 13 12 12 13 12 10 11 11 11 11 9 12 11 10 10 9 9 8 8 9 9 9 9 9 9 9 10 10 10 11 11 9 9 8 7
10 7 7 9 7 12 11 14 18 8 16 14 10 7 8 8 7 9 11 16 15 16 19 21 25 23 21 24 25 19 4 6 11 21 12 15 13 15 16 17 17 18 18 17 18 19 19 19 17 16 13 12 14 14 14 12 11 11 11 12 11 10 10 12 11 10 10 11 10 9 9 9 9 9 10 9 10 10 9 10 10 9 8 9 9 10
11 13 7 9 9 10 13 11 7 8 14 20 27 2 8 9 13 13 10 18 9 21 23 25 28 24 23 26 24 7 4 4 13 21 19 7 14 17 18 18 14 13 15 15 15 13 13 13 12 12 15 15 15 15 13 14 13 12 12 12 12 12 11 11 11 11 11 11 11 10 9 10 10 10 10 10 11 11 9 8 7 8 8 10 10 10
13 11 8 12 7 8 10 12 10 12 17 21 2 8 10 9 6 3 3 19 6 11 15 22 23 22 24 23 14 8 4 6 14 21 6 6 7 13 15 16 11 12 13 15 16 14 14 14 16 15 14 15 16 15 15 16 14 13 13 13 13 13 13 12 11 12 13 12 10 11 10 10 9 9 10 10 10 10 10 10 10 8 8 7 7 8
17 11 9 10 10 10 9 10 14 7 14 5 4 5 12 6 6 5 11 15 6 25 30 25 26 27 21 17 6 9 9 11 15 18 2 8 6 8 11 10 9 9 10 10 11 16 17 13 12 12 14 16 17 15 16 17 15 13 13 13 13 14 14 14 13 11 10 10 10 10 10 10 11 10 11 11 10 10 10 9 8 9 9 8 7 7
12 10 9 16 12 14 15 13 5 9 12 11 3 0 1 8 9 10 24 6 4 13 8 8 19 18 15 9 11 10 15 19 17 1 1 0 1 1 3 4 8 10 11 10 11 9 11 14 17 19 20 18 16 15 15 16 17 15 12 12 13 15 15 13 11 11 11 10 10 10 11 10 11 11 10 10 10 10 9 8 9 9 9 8 7 6
6 7 8 12 16 15 13 14 15 11 11 2 3 6 7 5 10 21 2 3 5 2 5 6 8 12 6 12 11 13 16 14 12 5 3 1 1 2 2 3 5 4 5 8 12 13 12 13 14 14 12 10 14 15 15 16 17 16 14 12 14 15 12 12 13 12 11 12 11 10 10 10 10 10 10 9 8 8 8 8 9 10 10 8 8 9
10 9 9 10 6 8 8 9 9 13 12 15 5 2 5 15 6 1 4 5 2 3 4 3 9 5 8 8 12 15 14 7 5 8 8 3 2 2 4 6 8 10 10 9 9 12 15 13 14 15 16 14 15 14 14 17 17 16 15 15 15 10 10 13 13 13 12 12 11 10 10 10 11 10 9 9 9 10 9 8 9 9 9 10 10 10
9 9 5 6 8 10 14 14 12 17 4 12 17 18 10 14 3 7 7 9 8 0 2 1 4 7 6 11 11 12 12 8 6 6 5 5 3 2 2 4 4 6 7 7 10 12 13 14 13 13 12 13 13 14 15 17 17 16 16 18 11 9 9 11 13 13 12 11 12 10 9 10 10 10 9 9 9 9 9 9 8 8 9 9 9 9
6 13 7 11 9 11 11 13 14 7 4 6 6 13 11 10 12 13 9 6 8 10 2 3 5 5 8 9 8 6 6 7 11 5 5 7 5 5 6 8 10 11 11 13 14 13 13 15 15 13 13 13 15 14 14 15 17 17 19 15 12 11 11 11 12 14 13 13 12 11 9 9 9 10 9 9 9 9 8 8 8 8 7 7 8 8
13 13 12 9 6 6 9 8 5 12 15 11 5 4 5 7 11 12 17 17 10 12 6 8 4 5 7 7 2 3 7 8 6 6 6 5 5 4 2 3 4 5 6 6 7 11 12 11 13 14 16 13 15 15 14 14 15 19 18 13 13 13 12 11 11 12 13 12 12 12 10 9 8 8 9 9 8 9 9 9 9 8 8 8 8 8
11 11 10 9 4 5 8 7 19 21 18 8 4 6 7 7 5 6 9 14 16 17 13 6 5 5 3 4 6 8 9 5 5 6 5 5 6 6 6 7 8 9 12 14 13 12 10 11 12 14 16 16 14 14 14 14 13 14 11 13 13 13 13 12 11 11 11 12 11 11 11 11 9 8 8 8 8 8 8 9 9 9 9 9 9 8
8 3 9 10 13 11 11 11 12 14 11 12 13 9 12 14 13 10 11 12 14 13 9 4 1 3 1 3 7 6 7 4 6 6 5 7 8 6 7 7 7 6 6 6 8 12 11 13 15 16 16 16 15 14 14 14 13 11 11 12 13 13 13 13 12 12 11 12 11 11 12 11 13 12 8 8 9 9 8 8 9 9 10 10 10 10
14 16 13 11 11 11 13 19 17 14 12 14 9 5 10 15 18 21 15 8 8 10 13 11 4 5 6 8 5 5 6 8 8 7 6 6 5 5 8 9 9 9 8 9 10 12 15 14 15 16 17 15 14 14 13 13 11 10 12 12 13 14 14 14 14 12 11 11 11 11 11 10 11 10 10 9 9 9 10 11 10 11 10 11 11 12
9 15 12 11 14 14 12 18 13 9 14 18 15 15 12 9 12 17 21 20 17 13 10 10 11 5 5 6 6 7 10 8 5 6 7 8 9 9 7 7 7 8 9 7 6 9 10 11 14 16 16 13 13 14 13 13 11 10 11 12 12 14 15 14 14 13 13 11 11 10 11 10 11 11 10 10 10 9 7 8 11 11 10 9 9 11
12 17 11 13 13 14 13 15 7 8 15 16 11 8 4 4 7 12 17 19 19 17 10 9 10 8 6 9 7 7 8 8 6 5 5 5 10 9 9 8 10 10 10 9 9 10 12 11 10 10 12 13 13 14 14 13 12 11 12 12 13 14 14 14 13 12 12 12 11 11 11 11 11 11 10 10 10 9 9 7 7 11 13 11 12 14
Wind_Direction
142 158 202 218 214 203 214 200 208 223 163 103 121 160 239 227 281 262 241 256 152 294 247 242 256 267 274 276 280 280 274 234 246 250 245 242 238 239 240 236 235 231 233 247 203 192 187 190 198 194 184 187 176 192 206 221 240 242 234 220 228 233 234 193 188 182 191 194 196 204 203 211 202 195 209 189 193 173 174 168 165 159 160 161 158 158
91 190 243 234 204 211 219 207 206 99 156 195 215 216 268 194 261 265 87 114 255 183 293 290 287 275 270 279 279 283 289 270 256 252 249 244 237 236 231 236 229 231 287 123 108 114 107 107 111 111 122 137 156 189 155 199 223 223 226 232 245 255 238 224 191 193 195 198 199 192 196 191 194 189 185 197 214 191 169 167 165 165 162 162 161 159
171 212 243 230 199 116 96 178 192 191 193 178 199 218 295 263 248 291 1 50 273 112 269 329 302 283 283 282 281 280 275 268 260 225 239 233 236 231 228 232 226 180 175 145 154 140 121 98 97 110 130 143 159 179 181 203 202 218 227 227 231 237 221 244 226 189 201 199 205 201 191 186 183 231 210 195 178 182 187 166 162 159 161 161 160 160
232 247 250 199 134 144 80 125 147 147 108 176 128 144 233 220 35 306 292 12 264 187 260 318 302 288 288 280 269 269 258 263 270 236 243 215 227 219 219 212 197 191 165 171 172 160 157 99 77 18 32 240 97 225 252 233 221 236 239 235 221 228 230 223 243 232 205 201 197 201 185 183 176 180 183 142 152 148 190 170 159 159 160 159 159 162
215 222 113 132 159 160 175 172 151 158 223 241 196 209 249 223 234 189 259 286 236 339 284 284 267 283 292 298 325 308 288 292 299 312 278 254 234 245 223 196 193 184 181 177 179 199 169 159 177 191 205 177 184 219 227 242 246 252 246 233 223 226 225 225 220 227 233 196 191 184 147 152 118 93 161 151 152 166 171 188 160 164 163 160 162 161
257 242 124 125 159 163 135 195 213 166 228 292 231 206 220 194 189 325 349 6 359 327 320 347 343 286 285 277 261 275 321 307 304 337 263 244 237 200 184 180 175 172 177 162 174 182 191 191 221 243 226 203 216 219 227 221 227 225 238 244 244 238 222 219 222 215 213 212 190 173 155 173 177 170 186 183 174 168 169 189 174 158 163 162 160 159
223 142 152 166 161 184 189 208 222 167 201 194 268 200 190 137 115 112 359 53 322 265 267 59 101 283 302 286 268 284 321 293 306 285 262 263 225 184 181 176 169 162 172 184 175 170 176 223 217 249 245 234 229 238 231 235 234 233 233 232 229 223 220 214 214 206 200 214 204 189 191 190 191 183 193 199 178 172 169 159 179 163 160 160 156 157
89 136 131 110 144 175 194 239 226 167 141 236 269 111 116 120 134 167 126 155 239 276 295 78 152 220 307 291 262 333 311 282 296 283 258 246 231 222 196 188 179 184 178 175 191 199 210 211 202 222 237 247 247 259 260 248 242 243 248 242 224 217 217 211 210 207 198 204 203 197 195 195 195 194 183 181 177 170 158 157 174 156 152 156 157 153
149 163 177 158 165 165 213 209 162 168 151 221 194 110 128 141 161 146 111 157 192 34 289 358 231 305 251 260 294 308 307 303 286 258 245 236 230 221 198 192 194 189 187 173 181 203 209 213 227 227 254 253 267 264 257 257 257 256 257 255 253 237 221 216 212 212 202 198 204 203 193 196 200 192 190 160 153 156 159 156 163 166 151 150 151 154
327 176 197 173 160 214 209 271 173 168 189 196 138 85 74 71 70 114 101 106 321 68 272 185 192 210 276 273 320 321 219 264 255 252 239 228 221 207 199 206 208 202 195 197 195 197 206 212 215 230 264 284 264 263 271 277 276 268 258 251 241 236 226 219 216 213 209 200 192 206 206 198 195 188 175 160 162 161 160 153 160 166 153 150 149 155
249 307 166 130 201 197 128 54 164 144 124 124 95 75 33 40 54 27 67 94 60 230 257 213 198 135 299 257 231 163 217 198 226 291 265 260 239 228 210 198 196 198 196 199 212 217 213 214 229 304 280 267 273 272 302 304 283 264 251 244 238 231 221 216 215 207 209 201 192 198 207 198 187 174 168 167 161 159 159 157 156 165 162 154 152 154
21 10 113 250 105 130 103 82 19 94 121 120 123 131 96 350 8 39 342 39 157 267 260 259 171 210 191 289 265 240 277 212 176 199 210 215 214 208 209 212 208 196 196 204 203 214 207 9 322 259 263 265 277 328 337 314 291 272 258 244 236 231 219 212 211 206 206 202 200 203 200 195 185 169 174 174 162 165 167 163 160 156 157 150 145 148
259 202 233 335 197 141 131 91 15 34 46 97 95 67 133 259 23 292 37 259 206 217 216 101 170 325 234 241 272 280 251 246 216 207 197 199 206 212 214 212 205 199 201 197 198 194 172 185 230 265 266 271 329 348 321 291 279 269 257 242 231 230 217 208 202 204 205 203 205 194 204 195 180 174 176 175 163 161 162 162 154 154 161 151 148 157
272 68 191 216 120 228 152 154 166 188 201 139 153 148 110 237 230 250 259 264 307 285 301 161 222 243 279 287 237 245 256 243 220 223 217 192 195 203 208 207 201 205 199 200 190 186 193 201 207 231 260 290 345 345 296 271 277 275 244 232 220 225 211 208 207 205 203 205 202 197 195 193 180 178 173 170 161 157 160 164 162 162 163 166 162 160
240 281 235 154 238 165 191 204 182 156 157 196 114 156 185 146 162 234 181 216 214 207 218 268 77 235 108 240 267 225 249 287 241 228 212 214 205 198 193 183 191 199 218 201 185 190 198 196 187 221 260 277 12 315 282 273 276 278 254 230 223 220 214 205 206 203 201 199 196 195 191 191 175 172 172 166 157 157 159 163 162 164 162 169 161 159
217 235 293 292 352 158 182 102 113 99 78 192 162 84 97 233 130 238 205 169 232 304 262 217 215 209 202 270 286 250 263 263 240 236 205 224 195 146 156 182 197 205 207 200 193 202 202 165 168 240 252 79 15 285 282 273 280 278 265 236 220 208 208 199 193 190 189 192 184 177 172 164 167 166 159 153 151 157 158 159 165 164 163 166 153 145
26 263 136 300 68 152 180 117 163 162 201 188 117 198 207 123 100 85 54 55 81 46 251 166 304 277 299 290 270 330 239 271 212 216 200 206 200 172 192 200 202 207 201 200 198 196 172 137 167 202 240 92 298 265 275 267 270 279 352 5 90 89 89 120 143 149 152 149 158 162 158 150 154 155 147 151 149 151 154 157 160 158 154 145 151 146
173 245 303 119 197 288 172 123 120 51 159 107 204 234 173 141 112 133 229 348 69 218 272 155 207 265 5 284 346 1 358 272 233 212 209 217 202 204 220 207 202 204 207 204 200 188 165 157 171 197 203 138 242 262 255 263 255 304 48 30 61 91 106 102 110 130 134 128 121 134 147 149 150 144 135 139 141 140 141 147 146 144 144 152 155 150
156 268 199 298 88 261 121 116 16 296 123 150 193 273 128 210 218 280 87 264 217 258 267 273 247 274 216 250 340 268 216 242 227 210 207 230 222 226 230 226 221 219 211 203 195 181 163 173 188 186 197 156 203 240 243 249 125 49 52 50 60 52 79 101 111 98 106 122 128 131 135 142 141 139 135 136 136 138 143 144 145 148 146 140 149 151
334 216 291 259 137 221 74 142 192 188 268 108 26 315 300 89 199 132 201 176 121 266 45 289 105 220 216 210 199 235 220 219 206 196 215 216 210 215 225 217 204 206 205 200 196 187 179 180 196 184 181 176 199 223 245 248 142 89 79 79 61 68 75 83 113 123 117 118 114 115 113 110 124 128 131 137 140 144 146 150 150 147 150 157 158 164
249 152 260 182 305 109 184 185 205 181 180 182 155 261 288 159 227 117 304 151 178 194 200 266 282 233 248 195 177 218 210 208 186 199 210 213 214 218 220 206 200 202 202 201 191 186 177 177 193 190 187 157 186 218 217 177 151 106 90 89 76 101 98 92 86 107 120 121 119 119 122 124 119 125 130 135 142 141 144 148 152 155 155 149 160 168
222 250 234 125 208 232 245 243 204 168 198 182 180 197 188 149 143 159 254 52 124 143 239 155 264 203 276 175 198 224 215 193 203 192 204 211 210 217 220 215 198 199 209 195 192 183 173 178 186 183 178 153 182 203 198 178 149 118 95 86 85 90 108 113 116 126 123 123 132 128 125 125 130 132 134 135 139 140 144 149 151 151 152 160 158 168
176 122 104 201 206 203 220 203 125 84 75 179 159 237 167 243 70 113 224 231 359 244 115 199 316 273 168 216 231 228 195 199 197 188 204 208 210 216 221 208 204 202 194 195 188 184 174 173 179 180 178 167 191 206 197 189 162 144 121 109 100 107 111 134 138 139 130 132 135 134 132 131 133 135 137 138 142 145 149 152 152 153 156 157 156 163
118 207 214 286 316 306 51 273 50 63 117 7 270 181 146 205 198 221 205 176 181 178 162 273 245 243 37 298 258 236 242 225 187 190 201 202 209 222 212 197 198 204 211 198 187 183 175 168 172 174 185 179 188 206 191 186 160 143 125 125 117 121 119 135 141 139 135 135 133 132 135 139 141 142 144 146 150 152 153 152 151 154 155 154 153 157
169 225 209 228 290 344 352 358 39 325 89 222 200 206 213 221 251 186 103 97 252 205 165 169 246 266 259 303 288 296 165 189 200 221 204 191 213 221 212 202 196 199 194 194 187 185 171 169 180 183 190 180 188 203 193 180 164 142 129 130 134 123 134 124 138 138 137 136 134 135 137 139 143 145 148 149 153 154 154 153 150 154 153 150 154 154
179 176 171 198 218 227 218 201 209 193 216 207 225 204 206 199 193 125 239 173 234 225 176 225 250 257 221 258 259 225 213 240 249 233 225 222 199 210 210 197 192 191 201 197 188 181 182 181 181 186 188 183 187 202 194 174 164 144 132 138 124 131 138 140 134 141 136 142 138 141 144 144 147 151 153 154 157 157 154 150 151 152 153 157 155 154
198 204 196 199 214 234 242 212 236 114 66 186 221 188 210 203 203 202 71 175 220 119 210 225 220 259 259 259 214 235 202 210 218 224 221 224 235 229 218 200 190 192 193 195 194 190 179 178 188 190 190 185 183 197 202 174 170 147 139 138 141 142 142 149 145 144 143 147 144 147 148 153 156 156 155 157 158 155 152 151 152 154 158 161 156 156
181 208 217 210 223 239 251 226 221 188 204 218 204 215 210 192 194 197 198 230 114 108 252 137 226 252 253 256 259 230 216 224 223 212 219 231 232 218 207 206 199 198 201 192 197 192 190 188 186 191 191 186 181 190 200 183 176 155 147 146 144 143 145 151 153 152 149 148 149 151 155 159 156 157 156 155 153 157 154 150 151 155 153 155 160 161
172 224 220 200 242 249 250 251 228 227 238 240 218 213 204 200 185 202 222 224 159 210 239 140 205 234 247 248 259 256 202 208 216 214 212 213 214 195 179 191 200 203 200 196 200 199 194 189 189 190 190 187 175 186 193 186 170 153 138 141 148 151 155 154 160 162 159 155 156 157 155 150 151 147 145 149 152 153 155 153 150 149 153 160 164 167
118 257 251 236 247 245 252 245 217 230 243 241 239 230 219 197 202 208 221 216 210 228 237 219 229 236 242 250 248 261 176 202 221 217 223 214 210 193 199 206 204 204 201 201 201 201 200 194 186 189 188 185 177 182 191 191 173 164 154 152 154 159 158 156 166 167 167 164 161 152 147 146 146 147 147 149 154 159 154 151 149 153 159 166 165 161
153 250 207 171 243 252 247 238 222 225 220 244 244 231 223 218 218 217 221 225 226 254 264 301 270 265 250 243 264 273 202 187 201 202 215 215 206 195 202 211 210 208 207 205 200 201 199 196 189 184 188 190 180 180 188 195 179 167 158 154 154 161 160 162 161 166 171 170 158 152 147 147 153 151 156 159 155 155 154 151 151 154 158 157 158 161
181 255 65 121 245 253 246 235 231 214 236 244 255 240 229 219 226 220 223 218 209 229 223 242 254 253 257 267 258 266 232 196 218 219 218 214 203 204 211 217 215 212 207 205 202 199 198 195 192 188 191 191 184 177 183 188 183 170 166 161 156 155 156 163 165 168 173 168 158 157 154 153 154 157 160 158 159 158 155 148 149 152 154 155 160 162
180 202 217 187 233 244 248 196 213 119 329 273 245 232 228 230 221 217 225 215 213 209 215 226 239 249 272 255 259 260 246 230 230 226 221 219 215 215 218 222 220 216 207 202 198 200 198 196 194 191 190 188 185 179 183 181 179 178 168 163 159 146 156 164 167 169 172 167 164 163 156 154 156 159 162 165 161 156 150 153 153 154 158 165 164 157
196 211 223 185 229 238 245 176 143 236 244 242 249 199 188 218 205 223 232 218 225 202 230 231 251 249 243 258 252 263 259 248 249 234 197 202 211 217 225 226 223 217 210 201 199 198 200 196 194 191 190 189 186 179 173 179 180 177 166 156 156 150 158 162 168 170 170 169 172 167 162 158 157 163 167 162 158 158 160 163 169 166 162 154 156 169
204 204 224 198 221 240 233 115 221 233 240 242 266 233 197 199 198 211 227 217 218 218 232 243 248 248 241 248 255 254 259 269 257 246 209 215 205 200 210 216 218 211 204 199 198 201 197 194 192 187 186 188 181 170 163 175 173 163 161 157 162 159 155 165 165 168 167 169 171 167 165 164 163 163 168 167 165 167 172 174 166 166 169 172 175 177
208 204 207 216 209 27 96 179 232 238 250 338 274 288 244 245 224 217 242 234 222 216 219 231 238 242 241 249 254 255 264 289 299 247 228 222 200 206 206 215 216 203 203 199 195 197 194 191 190 187 189 180 169 169 167 172 169 166 169 161 162 165 157 159 165 167 165 169 174 176 173 168 167 164 166 168 168 172 174 175 175 175 171 170 174 177
219 222 208 232 192 225 217 224 237 321 320 287 273 227 162 166 159 164 242 247 213 225 224 233 243 242 245 250 254 259 292 350 303 283 237 218 211 210 211 220 209 201 201 200 193 195 194 191 189 187 172 170 174 170 170 164 168 170 164 164 164 164 163 160 164 169 169 171 175 177 175 172 170 167 166 166 169 175 176 175 176 175 169 175 179 180
204 209 189 216 222 209 231 245 252 245 254 256 237 252 165 195 184 188 199 261 187 217 213 218 230 231 237 244 250 252 75 328 285 273 268 205 203 213 222 229 218 199 195 195 194 194 186 184 181 170 168 172 176 175 164 159 168 171 171 171 165 163 166 169 171 168 171 176 173 174 177 178 176 173 171 170 176 177 178 176 173 178 173 181 180 186
212 216 225 220 228 210 224 234 233 229 237 246 283 179 199 197 139 124 29 268 181 206 228 223 231 231 228 236 239 105 137 230 247 257 269 137 210 211 220 226 211 197 192 186 180 181 180 179 174 171 168 170 175 177 165 158 165 175 178 176 172 168 169 176 174 171 174 178 171 169 172 179 178 179 177 178 181 175 173 177 177 172 171 182 182 184
213 206 208 230 225 231 230 229 233 214 251 255 211 205 191 161 126 95 245 270 178 194 215 204 212 222 225 227 155 157 163 230 242 260 129 198 206 214 206 212 196 195 194 183 184 179 174 163 147 158 170 178 182 172 167 159 163 177 182 182 176 175 178 181 180 175 167 166 169 169 171 177 179 183 183 184 180 179 180 174 169 173 177 181 180 177
208 221 209 228 222 227 223 242 280 266 266 246 219 294 52 153 135 168 223 211 241 225 247 205 217 219 213 180 156 191 216 217 233 293 301 263 167 253 231 205 197 181 174 173 178 159 154 162 167 174 179 182 174 170 169 165 163 176 185 185 184 186 184 175 168 167 167 166 170 172 175 177 181 181 185 184 182 178 171 170 171 165 170 172 170 169
225 214 226 212 216 221 223 230 233 260 251 129 186 134 147 96 204 224 284 222 294 248 222 221 208 216 171 174 191 207 230 229 249 283 308 335 201 263 195 169 133 155 171 169 161 158 164 166 175 176 172 167 169 172 171 169 169 173 180 190 199 196 174 165 166 166 166 168 171 175 176 179 182 178 180 181 172 170 172 173 170 169 169 167 167 174
186 187 192 204 213 234 233 234 237 246 251 183 113 2 208 206 239 342 187 248 176 231 157 174 204 219 181 203 211 220 243 247 226 241 247 248 213 200 174 165 171 169 169 158 169 175 161 168 173 176 173 169 170 174 176 173 173 173 176 193 204 186 174 169 164 164 167 168 170 177 179 180 178 176 176 175 174 173 176 172 170 171 172 170 173 178
166 212 190 224 176 207 207 210 216 216 293 138 171 216 200 221 338 301 324 300 305 86 180 229 264 223 194 204 212 231 245 255 284 269 271 265 242 242 196 202 182 166 162 181 171 172 169 168 173 170 170 166 170 176 178 177 176 176 179 194 182 174 174 170 166 163 166 171 173 177 178 180 178 178 176 173 172 174 172 172 174 172 176 176 177 178
166 220 183 221 183 201 206 226 229 248 210 250 227 237 236 217 241 260 269 279 280 284 178 197 242 238 207 209 219 210 251 238 240 231 210 238 223 202 193 197 186 184 181 173 179 174 173 170 171 168 167 172 172 179 182 184 177 176 185 184 156 171 174 175 169 167 170 172 173 177 177 173 177 179 178 173 170 171 171 171 167 174 182 176 181 180
319 296 298 273 241 249 270 263 304 258 251 243 264 286 289 254 234 232 250 260 264 260 231 231 212 192 209 211 184 257 223 244 232 244 239 252 231 235 218 192 193 183 171 164 165 179 178 170 164 164 169 176 178 179 184 188 182 181 189 164 162 165 171 172 173 173 176 174 171 173 169 171 177 178 178 171 174 175 173 170 172 176 177 180 184 183
269 266 266 261 275 238 233 210 243 249 250 250 293 302 291 262 261 268 258 248 247 254 252 242 270 277 227 180 203 228 246 224 218 238 230 247 240 220 203 196 195 185 180 183 182 166 168 161 167 173 173 176 183 183 185 188 194 190 167 167 164 163 165 169 175 178 177 178 175 172 171 173 175 175 175 173 175 178 175 176 177 179 180 182 182 186
289 18 310 275 272 251 257 232 236 255 271 268 261 262 273 291 286 260 240 254 256 263 282 313 205 289 86 238 229 223 249 217 205 226 219 223 228 217 210 204 194 188 202 187 171 176 166 171 174 179 178 181 182 184 185 188 191 179 171 166 163 162 164 170 177 180 184 180 176 177 176 177 173 172 176 179 176 180 183 184 182 182 185 185 185 183
281 302 280 299 287 278 283 281 270 268 277 271 269 255 247 251 265 277 274 267 281 285 284 280 214 215 188 232 227 219 242 238 212 201 202 222 231 227 216 206 196 189 175 178 185 181 181 179 182 183 182 183 179 179 185 189 185 175 171 169 165 164 167 174 176 179 182 182 178 180 177 176 175 178 176 177 181 189 187 185 188 190 195 199 190 190
271 261 269 271 270 262 246 251 245 251 262 257 252 254 256 256 263 264 273 279 278 273 268 278 280 251 222 232 209 204 221 243 203 181 207 215 217 222 213 203 197 185 185 187 174 193 191 190 185 182 186 182 175 179 183 186 182 176 172 167 168 169 173 174 175 179 183 182 184 183 178 176 176 178 177 177 182 184 198 207 197 194 194 196 197 201
241 256 253 255 260 271 270 271 299 277 280 278 290 274 260 262 269 279 278 272 271 272 266 257 266 276 255 247 221 212 229 242 237 182 211 222 229 221 211 193 186 190 186 171 172 194 201 196 192 188 186 183 177 180 182 182 182 176 175 170 171 174 178 174 175 180 181 181 189 187 183 180 178 180 179 180 180 183 186 188 213 214 207 198 188 191